Time,TemperatureF,DewpointF,PressureIn,WindDirection,WindDirectionDegrees,WindSpeedMPH,WindSpeedGustMPH,Humidity,HourlyPrecipIn,Conditions,Clouds,dailyrainin,SoftwareType,DateUTC
2013-08-19 00:07:00,52.9,41.0,29.82,NW,309,0.0,2.0,65,0.00,,,0.00,weatherlink.com 1.10,2013-08-19 06:07:00,
2013-08-19 00:23:00,52.7,41.0,29.82,NW,309,0.0,1.0,65,0.00,,,0.00,weatherlink.com 1.10,2013-08-19 06:23:00,
2013-08-19 00:38:00,53.2,41.0,29.82,WSW,240,2.0,5.0,64,0.00,,,0.00,weatherlink.com 1.10,2013-08-19 06:38:00,
2013-08-19 00:53:00,53.1,42.0,29.82,WSW,242,0.0,4.0,65,0.00,,,0.00,weatherlink.com 1.10,2013-08-19 06:53:00,
2013-08-19 01:07:00,52.4,41.0,29.82,WSW,242,0.0,2.0,66,0.00,,,0.00,weatherlink.com 1.10,2013-08-19 07:07:00,
2013-08-19 01:22:00,51.2,41.0,29.82,WSW,242,0.0,0.0,68,0.00,,,0.00,weatherlink.com 1.10,2013-08-19 07:22:00,
2013-08-19 01:37:00,50.4,41.0,29.81,South,181,1.0,4.0,70,0.00,,,0.00,weatherlink.com 1.10,2013-08-19 07:37:00,
2013-08-19 01:52:00,49.9,41.0,29.81,South,184,0.0,3.0,71,0.00,,,0.00,weatherlink.com 1.10,2013-08-19 07:52:00,
2013-08-19 02:07:00,49.0,40.0,29.81,South,184,0.0,3.0,72,0.00,,,0.00,weatherlink.com 1.10,2013-08-19 08:07:00,
2013-08-19 02:22:00,49.3,41.0,29.81,South,184,0.0,3.0,72,0.00,,,0.00,weatherlink.com 1.10,2013-08-19 08:22:00,
2013-08-19 02:38:00,50.2,40.0,29.81,South,184,0.0,3.0,69,0.00,,,0.00,weatherlink.com 1.10,2013-08-19 08:38:00,
2013-08-19 02:53:00,50.0,40.0,29.81,South,184,0.0,2.0,69,0.00,,,0.00,weatherlink.com 1.10,2013-08-19 08:53:00,
2013-08-19 03:07:00,49.2,40.0,29.81,South,184,0.0,0.0,71,0.00,,,0.00,weatherlink.com 1.10,2013-08-19 09:07:00,
2013-08-19 03:24:00,48.3,40.0,29.81,South,184,0.0,0.0,73,0.00,,,0.00,weatherlink.com 1.10,2013-08-19 09:24:00,
2013-08-19 03:37:00,48.4,40.0,29.81,South,184,0.0,0.0,73,0.00,,,0.00,weatherlink.com 1.10,2013-08-19 09:37:00,
2013-08-19 03:52:00,47.8,40.0,29.80,South,184,0.0,0.0,75,0.00,,,0.00,weatherlink.com 1.10,2013-08-19 09:52:00,
2013-08-19 04:08:00,47.1,40.0,29.80,South,184,0.0,1.0,75,0.00,,,0.00,weatherlink.com 1.10,2013-08-19 10:08:00,
2013-08-19 04:23:00,46.3,39.0,29.80,South,184,0.0,1.0,77,0.00,,,0.00,weatherlink.com 1.10,2013-08-19 10:23:00,
2013-08-19 04:38:00,45.7,40.0,29.80,South,184,2.0,3.0,80,0.00,,,0.00,weatherlink.com 1.10,2013-08-19 10:38:00,
2013-08-19 04:53:00,45.0,40.0,29.81,WSW,252,3.0,5.0,82,0.00,,,0.00,weatherlink.com 1.10,2013-08-19 10:53:00,
2013-08-19 05:08:00,45.2,40.0,29.80,WSW,252,2.0,4.0,82,0.00,,,0.00,weatherlink.com 1.10,2013-08-19 11:08:00,
2013-08-19 05:23:00,45.9,40.0,29.80,WSW,252,0.0,4.0,81,0.00,,,0.00,weatherlink.com 1.10,2013-08-19 11:23:00,
2013-08-19 05:38:00,46.7,41.0,29.80,WSW,252,1.0,3.0,80,0.00,,,0.00,weatherlink.com 1.10,2013-08-19 11:38:00,
2013-08-19 05:53:00,47.1,41.0,29.80,WSW,252,1.0,3.0,78,0.00,,,0.00,weatherlink.com 1.10,2013-08-19 11:53:00,
2013-08-19 06:08:00,46.9,40.0,29.80,WSW,252,0.0,2.0,77,0.00,,,0.00,weatherlink.com 1.10,2013-08-19 12:08:00,
2013-08-19 06:23:00,45.8,39.0,29.81,SE,146,3.0,4.0,78,0.00,,,0.00,weatherlink.com 1.10,2013-08-19 12:23:00,
2013-08-19 06:38:00,44.5,39.0,29.82,South,174,0.0,1.0,81,0.00,,,0.00,weatherlink.com 1.10,2013-08-19 12:38:00,
2013-08-19 06:53:00,44.3,40.0,29.82,South,174,0.0,1.0,84,0.00,,,0.00,weatherlink.com 1.10,2013-08-19 12:53:00,
2013-08-19 07:10:00,45.3,41.0,29.83,South,174,0.0,2.0,84,0.00,,,0.00,weatherlink.com 1.10,2013-08-19 13:10:00,
2013-08-19 07:23:00,46.8,41.0,29.82,South,169,0.0,2.0,80,0.00,,,0.00,weatherlink.com 1.10,2013-08-19 13:23:00,
2013-08-19 07:39:00,48.6,41.0,29.84,South,169,0.0,1.0,76,0.00,,,0.00,weatherlink.com 1.10,2013-08-19 13:39:00,
2013-08-19 07:54:00,50.5,42.0,29.84,SSW,198,0.0,1.0,73,0.00,,,0.00,weatherlink.com 1.10,2013-08-19 13:54:00,
2013-08-19 08:08:00,52.2,42.0,29.84,SSW,198,0.0,1.0,69,0.00,,,0.00,weatherlink.com 1.10,2013-08-19 14:08:00,
2013-08-19 08:23:00,54.5,43.0,29.84,SSW,198,0.0,1.0,66,0.00,,,0.00,weatherlink.com 1.10,2013-08-19 14:23:00,
2013-08-19 08:38:00,57.6,43.0,29.84,SSW,197,0.0,2.0,58,0.00,,,0.00,weatherlink.com 1.10,2013-08-19 14:38:00,
2013-08-19 08:54:00,59.8,42.0,29.84,SSW,197,0.0,2.0,52,0.00,,,0.00,weatherlink.com 1.10,2013-08-19 14:54:00,
2013-08-19 09:08:00,63.4,40.0,29.83,WSW,242,0.0,3.0,42,0.00,,,0.00,weatherlink.com 1.10,2013-08-19 15:08:00,
2013-08-19 09:24:00,65.1,40.0,29.83,NNW,329,0.0,5.0,40,0.00,,,0.00,weatherlink.com 1.10,2013-08-19 15:24:00,
2013-08-19 09:39:00,66.9,42.0,29.83,NNW,332,2.0,3.0,40,0.00,,,0.00,weatherlink.com 1.10,2013-08-19 15:39:00,
2013-08-19 09:54:00,67.9,41.0,29.83,WNW,294,0.0,4.0,38,0.00,,,0.00,weatherlink.com 1.10,2013-08-19 15:54:00,
2013-08-19 10:09:00,69.6,41.0,29.83,NW,311,0.0,6.0,36,0.00,,,0.00,weatherlink.com 1.10,2013-08-19 16:09:00,
2013-08-19 10:24:00,71.0,40.0,29.83,NNW,333,0.0,8.0,33,0.00,,,0.00,weatherlink.com 1.10,2013-08-19 16:24:00,
2013-08-19 10:55:00,72.3,40.0,29.83,NW,305,0.0,9.0,31,0.00,,,0.00,weatherlink.com 1.10,2013-08-19 16:55:00,
2013-08-19 11:09:00,73.4,35.0,29.83,North,355,0.0,8.0,25,0.00,,,0.00,weatherlink.com 1.10,2013-08-19 17:09:00,
2013-08-19 11:24:00,74.4,38.0,29.82,NNW,343,0.0,7.0,27,0.00,,,0.00,weatherlink.com 1.10,2013-08-19 17:24:00,
2013-08-19 11:39:00,73.7,32.0,29.82,North,350,0.0,10.0,22,0.00,,,0.00,weatherlink.com 1.10,2013-08-19 17:39:00,
2013-08-19 11:54:00,74.8,35.0,29.81,NNE,31,1.0,9.0,23,0.00,,,0.00,weatherlink.com 1.10,2013-08-19 17:54:00,
2013-08-19 12:09:00,76.0,36.0,29.81,ESE,112,0.0,9.0,23,0.00,,,0.00,weatherlink.com 1.10,2013-08-19 18:09:00,
2013-08-19 12:24:00,75.8,35.0,29.81,NE,42,0.0,11.0,23,0.00,,,0.00,weatherlink.com 1.10,2013-08-19 18:24:00,
2013-08-19 12:39:00,76.8,35.0,29.81,South,171,0.0,7.0,22,0.00,,,0.00,weatherlink.com 1.10,2013-08-19 18:39:00,
2013-08-19 12:54:00,75.6,35.0,29.81,NE,47,0.0,1.0,23,0.00,,,0.00,weatherlink.com 1.10,2013-08-19 18:54:00,
2013-08-19 13:09:00,71.3,37.0,29.82,NW,318,3.0,16.0,29,0.00,,,0.00,weatherlink.com 1.10,2013-08-19 19:09:00,
2013-08-19 13:24:00,69.2,39.0,29.82,WNW,288,7.0,14.0,33,0.00,,,0.00,weatherlink.com 1.10,2013-08-19 19:24:00,
2013-08-19 13:39:00,68.2,36.0,29.82,WSW,256,3.0,19.0,30,0.00,,,0.00,weatherlink.com 1.10,2013-08-19 19:39:00,
2013-08-19 13:55:00,70.0,36.0,29.81,NNW,334,3.0,13.0,29,0.00,,,0.00,weatherlink.com 1.10,2013-08-19 19:55:00,
2013-08-19 14:10:00,74.1,36.0,29.80,NNW,327,4.0,18.0,25,0.00,,,0.00,weatherlink.com 1.10,2013-08-19 20:10:00,
2013-08-19 14:25:00,76.4,34.0,29.80,NNW,340,0.0,9.0,21,0.00,,,0.00,weatherlink.com 1.10,2013-08-19 20:25:00,
2013-08-19 14:40:00,74.8,32.0,29.80,NE,35,4.0,7.0,21,0.00,,,0.00,weatherlink.com 1.10,2013-08-19 20:40:00,
2013-08-19 14:55:00,75.1,30.0,29.79,East,88,0.0,7.0,19,0.00,,,0.00,weatherlink.com 1.10,2013-08-19 20:55:00,
2013-08-19 15:10:00,74.8,31.0,29.78,ENE,59,1.0,1.0,20,0.00,,,0.00,weatherlink.com 1.10,2013-08-19 21:10:00,
2013-08-19 15:25:00,76.3,34.0,29.77,NNW,342,1.0,6.0,21,0.00,,,0.00,weatherlink.com 1.10,2013-08-19 21:25:00,
2013-08-19 15:40:00,75.9,32.0,29.77,West,259,1.0,6.0,20,0.00,,,0.00,weatherlink.com 1.10,2013-08-19 21:40:00,
2013-08-19 15:55:00,75.3,33.0,29.76,NNW,334,0.0,9.0,21,0.00,,,0.00,weatherlink.com 1.10,2013-08-19 21:55:00,
2013-08-19 16:10:00,74.3,33.0,29.76,NNW,343,3.0,6.0,22,0.00,,,0.00,weatherlink.com 1.10,2013-08-19 22:10:00,
2013-08-19 16:25:00,73.8,33.0,29.76,NW,309,0.0,6.0,22,0.00,,,0.00,weatherlink.com 1.10,2013-08-19 22:25:00,
2013-08-19 16:40:00,73.4,34.0,29.75,SE,136,3.0,6.0,24,0.00,,,0.00,weatherlink.com 1.10,2013-08-19 22:40:00,
2013-08-19 16:55:00,72.9,38.0,29.75,East,88,0.0,10.0,28,0.00,,,0.00,weatherlink.com 1.10,2013-08-19 22:55:00,
2013-08-19 17:10:00,71.9,38.0,29.75,ESE,112,0.0,11.0,29,0.00,,,0.00,weatherlink.com 1.10,2013-08-19 23:10:00,
2013-08-19 17:25:00,71.2,37.0,29.75,ESE,113,2.0,11.0,29,0.00,,,0.00,weatherlink.com 1.10,2013-08-19 23:25:00,
2013-08-19 17:40:00,70.7,38.0,29.75,ESE,113,4.0,12.0,30,0.00,,,0.00,weatherlink.com 1.10,2013-08-19 23:40:00,
2013-08-19 17:55:00,70.3,37.0,29.75,ESE,104,0.0,8.0,30,0.00,,,0.00,weatherlink.com 1.10,2013-08-19 23:55:00,
2013-08-19 18:10:00,70.4,39.0,29.74,SE,138,6.0,9.0,32,0.00,,,0.00,weatherlink.com 1.10,2013-08-20 00:10:00,
2013-08-19 18:26:00,70.1,40.0,29.74,SSE,155,4.0,10.0,33,0.00,,,0.00,weatherlink.com 1.10,2013-08-20 00:26:00,
2013-08-19 18:41:00,69.0,39.0,29.74,SE,130,0.0,11.0,34,0.00,,,0.00,weatherlink.com 1.10,2013-08-20 00:41:00,
2013-08-19 18:56:00,68.2,39.0,29.75,ESE,123,0.0,8.0,35,0.00,,,0.00,weatherlink.com 1.10,2013-08-20 00:56:00,
2013-08-19 19:10:00,67.6,40.0,29.75,SSE,154,0.0,1.0,36,0.00,,,0.00,weatherlink.com 1.10,2013-08-20 01:10:00,
2013-08-19 19:25:00,66.8,40.0,29.75,SSW,197,0.0,3.0,37,0.00,,,0.00,weatherlink.com 1.10,2013-08-20 01:25:00,
2013-08-19 19:40:00,66.1,40.0,29.77,West,261,4.0,5.0,39,0.00,,,0.00,weatherlink.com 1.10,2013-08-20 01:40:00,
2013-08-19 19:55:00,59.6,45.0,29.78,WSW,242,4.0,18.0,59,0.00,,,0.00,weatherlink.com 1.10,2013-08-20 01:55:00,
2013-08-19 20:10:00,57.1,45.0,29.78,NNW,341,1.0,10.0,65,0.00,,,0.00,weatherlink.com 1.10,2013-08-20 02:10:00,
2013-08-19 20:25:00,56.5,46.0,29.79,WNW,290,5.0,8.0,68,0.00,,,0.00,weatherlink.com 1.10,2013-08-20 02:25:00,
2013-08-19 20:40:00,55.8,45.0,29.80,West,275,3.0,8.0,68,0.00,,,0.00,weatherlink.com 1.10,2013-08-20 02:40:00,
2013-08-19 20:55:00,55.9,45.0,29.81,WNW,284,4.0,8.0,68,0.00,,,0.00,weatherlink.com 1.10,2013-08-20 02:55:00,
2013-08-19 21:11:00,56.2,46.0,29.81,NW,319,5.0,9.0,68,0.00,,,0.00,weatherlink.com 1.10,2013-08-20 03:11:00,
2013-08-19 21:26:00,55.8,46.0,29.82,West,271,4.0,11.0,70,0.00,,,0.00,weatherlink.com 1.10,2013-08-20 03:26:00,
2013-08-19 21:41:00,54.7,47.0,29.83,WSW,247,4.0,6.0,74,0.00,,,0.00,weatherlink.com 1.10,2013-08-20 03:41:00,
2013-08-19 21:57:00,53.7,47.0,29.82,WSW,256,3.0,5.0,79,0.02,,,0.02,weatherlink.com 1.10,2013-08-20 03:57:00,
2013-08-19 22:11:00,53.0,47.0,29.82,WSW,256,3.0,8.0,79,0.02,,,0.02,weatherlink.com 1.10,2013-08-20 04:11:00,
2013-08-19 22:26:00,52.2,47.0,29.81,WSW,256,0.0,4.0,82,0.03,,,0.03,weatherlink.com 1.10,2013-08-20 04:26:00,
2013-08-19 22:41:00,52.3,46.0,29.80,WSW,256,0.0,0.0,80,0.02,,,0.03,weatherlink.com 1.10,2013-08-20 04:41:00,
2013-08-19 22:56:00,52.9,43.0,29.79,WSW,256,0.0,0.0,70,0.01,,,0.03,weatherlink.com 1.10,2013-08-20 04:56:00,
2013-08-19 23:11:00,54.8,41.0,29.79,WSW,256,1.0,3.0,60,0.01,,,0.03,weatherlink.com 1.10,2013-08-20 05:11:00,
2013-08-19 23:26:00,55.0,40.0,29.78,WSW,256,1.0,2.0,58,0.00,,,0.03,weatherlink.com 1.10,2013-08-20 05:26:00,
2013-08-19 23:41:00,54.9,43.0,29.79,WNW,285,1.0,2.0,64,0.00,,,0.03,weatherlink.com 1.10,2013-08-20 05:41:00,
2013-08-19 23:56:00,53.3,44.0,29.80,WNW,285,0.0,3.0,72,0.00,,,0.03,weatherlink.com 1.10,2013-08-20 05:56:00,